User: anonymous   Login
Location: Llanfihangel-Ystrad
(52.1833°N, 4.1667°W)
Time: 06:37:34
(UTC+00:00)
Language:

Cosmos 2369 Rocket - Orbit

View from above orbital plane
View from above orbital plane
View from above satellite
View from above satellite

Ground track
Ground track

The orbit data is extracted from the following two-line orbital elements,

1 26070U 00006B   20152.34773080 +.00000119 +00000-0 +85148-4 0  9994
2 26070 071.0018 209.1988 0015731 157.3563 202.8257 14.15461216050213
Epoch (UTC): 31 May 2020 08:20:43
Eccentricity: 0.0015731
inclination: 71.0018°
perigee height: 829 km
apogee height: 852 km
right ascension of ascending node: 209.1988°
argument of perigee: 157.3563°
revolutions per day: 14.15461216
mean anomaly at epoch: 202.8257°
orbit number at epoch: 5021

The dashed part of the orbit path shows where the satellite is in the earth's shadow,  

DLR